User: anonymous
Location: Caltech
(34.1382°N, 118.1253°W)
Time: 14:59:36
(UTC-07:00)
Language:

KITSAT 1 - Orbit

View from above orbital plane
View from above orbital plane
View from above satellite
View from above satellite

Ground track
Ground track

The orbit data is extracted from the following two-line orbital elements,

1 22077U 92052B   14226.73987579 -.00000057  00000-0  20422-4 0  6956
2 22077 066.0877 339.6157 0006339 203.7532 269.4179 12.86494014 33936
Epoch (UTC): 14 August 2014 17:45:25
Eccentricity: 0.0006339
inclination: 66.0877°
perigee height: 1310 km
apogee height: 1320 km
right ascension of ascending node: 339.6157°
argument of perigee: 203.7532°
revolutions per day: 12.86494014
mean anomaly at epoch: 269.4179°
orbit number at epoch: 3393

The dashed part of the orbit path shows where the satellite is in the earth's shadow,  

DLR